• In Belarus
  • List of Countries
  • For 7 days
  • Water Temperature
  • Satellite Maps
  • Weather Map
  • Weather Widgets
  • user-avatar
    Login

    Hourly Weather Warmiaki

    Today, 14 December, Friday

    Time Temperature Precipitation Wind Pressure Humidity
    00:00 -2°C° 0 mm 2 mps 758 mmHg 81%
    01:00 -3°C° 0 mm 2 mps 758 mmHg 84%
    02:00 -2°C° 0 mm 2 mps 758 mmHg 85%
    03:00 -2°C° 0 mm 2 mps 758 mmHg 85%
    04:00 -2°C° 0 mm 2 mps 758 mmHg 86%
    05:00 -2°C° 0 mm 2 mps 759 mmHg 86%
    06:00 -2°C° 0 mm 2 mps 759 mmHg 87%
    07:00 -2°C° 0 mm 2 mps 759 mmHg 87%
    08:00 -2°C° 0 mm 3 mps 759 mmHg 86%
    09:00 -1°C° 0 mm 3 mps 759 mmHg 85%
    10:00 -1°C° 0 mm 3 mps 760 mmHg 84%
    11:00 -1°C° 0 mm 3 mps 760 mmHg 83%
    12:00 0°C° 0 mm 3 mps 760 mmHg 82%
    13:00 0°C° 0 mm 3 mps 760 mmHg 81%
    14:00 0°C° 0 mm 3 mps 760 mmHg 83%
    15:00 -1°C° 0 mm 2 mps 760 mmHg 85%
    16:00 -1°C° 0 mm 2 mps 760 mmHg 87%
    17:00 -1°C° 0 mm 2 mps 760 mmHg 88%
    18:00 -1°C° 0 mm 2 mps 761 mmHg 89%
    19:00 -1°C° 0 mm 2 mps 761 mmHg 90%
    20:00 -1°C° 0 mm 2 mps 761 mmHg 91%
    21:00 -1°C° 0 mm 2 mps 761 mmHg 92%
    22:00 -2°C° 0 mm 2 mps 761 mmHg 92%
    23:00 -2°C° 0 mm 2 mps 761 mmHg 92%

    Tomorrow, 15 December, Saturday

    Time Temperature Precipitation Wind Pressure Humidity
    00:00 -2°C° 0 mm 2 mps 761 mmHg 92%
    01:00 -2°C° 0 mm 2 mps 762 mmHg 93%
    02:00 -2°C° 0 mm 2 mps 762 mmHg 93%
    03:00 -2°C° 0 mm 3 mps 762 mmHg 92%
    04:00 -2°C° 0 mm 3 mps 762 mmHg 92%
    05:00 -2°C° 0 mm 3 mps 762 mmHg 92%
    06:00 -2°C° 0 mm 3 mps 762 mmHg 92%
    07:00 -2°C° 0 mm 3 mps 762 mmHg 92%
    08:00 -2°C° 0 mm 3 mps 762 mmHg 89%
    09:00 -1°C° 0 mm 3 mps 763 mmHg 86%
    10:00 -1°C° 0 mm 3 mps 763 mmHg 83%
    11:00 -2°C° 0 mm 4 mps 763 mmHg 81%
    12:00 -1°C° 0 mm 4 mps 763 mmHg 79%
    13:00 -1°C° 0 mm 4 mps 762 mmHg 77%
    14:00 -2°C° 0 mm 4 mps 762 mmHg 78%
    15:00 -2°C° 0 mm 4 mps 762 mmHg 80%
    16:00 -3°C° 0 mm 4 mps 762 mmHg 81%
    17:00 -3°C° 0 mm 4 mps 762 mmHg 81%
    18:00 -3°C° 0 mm 4 mps 762 mmHg 80%
    19:00 -3°C° 0 mm 4 mps 762 mmHg 80%
    20:00 -3°C° 0 mm 4 mps 762 mmHg 79%
    21:00 -3°C° 0 mm 4 mps 762 mmHg 79%
    22:00 -3°C° 0 mm 4 mps 761 mmHg 78%
    23:00 -4°C° 0 mm 5 mps 761 mmHg 78%

    Day after tomorrow, 16 December, Sunday

    Time Temperature Precipitation Wind Pressure Humidity
    00:00 -4°C° 0 mm 5 mps 761 mmHg 77%
    01:00 -4°C° 0 mm 5 mps 761 mmHg 76%
    02:00 -4°C° 0.1 mm 5 mps 760 mmHg 78%
    03:00 -4°C° 0.1 mm 6 mps 759 mmHg 79%
    04:00 -4°C° 0.1 mm 6 mps 759 mmHg 80%
    05:00 -4°C° 0.2 mm 6 mps 759 mmHg 81%
    06:00 -4°C° 0.2 mm 6 mps 758 mmHg 82%
    07:00 -4°C° 0.2 mm 6 mps 758 mmHg 84%
    08:00 -4°C° 0.4 mm 6 mps 758 mmHg 85%
    09:00 -4°C° 0.4 mm 6 mps 758 mmHg 86%
    10:00 -4°C° 0.4 mm 6 mps 758 mmHg 87%
    11:00 -4°C° 0.6 mm 6 mps 757 mmHg 88%
    12:00 -4°C° 0.6 mm 6 mps 757 mmHg 89%
    13:00 -4°C° 0.6 mm 5 mps 756 mmHg 91%
    14:00 -4°C° 0.6 mm 5 mps 756 mmHg 91%
    15:00 -4°C° 0.6 mm 5 mps 756 mmHg 91%
    16:00 -4°C° 0.6 mm 5 mps 756 mmHg 92%
    17:00 -4°C° 0.2 mm 5 mps 756 mmHg 92%
    18:00 -3°C° 0.2 mm 4 mps 756 mmHg 92%
    19:00 -3°C° 0.2 mm 4 mps 756 mmHg 92%
    20:00 -3°C° 0 mm 4 mps 756 mmHg 92%
    21:00 -3°C° 0 mm 4 mps 756 mmHg 93%
    22:00 -2°C° 0 mm 3 mps 756 mmHg 93%
    23:00 -2°C° 0 mm 3 mps 756 mmHg 94%

    17 December, Monday

    Time Temperature Precipitation Wind Pressure Humidity
    00:00 -2°C° 0 mm 3 mps 756 mmHg 94%
    01:00 -4°C° 0 mm 3 mps 756 mmHg 95%
    02:00 -4°C° 0 mm 3 mps 756 mmHg 95%
    03:00 -2°C° 0 mm 3 mps 756 mmHg 95%
    04:00 -2°C° 0 mm 3 mps 755 mmHg 94%
    05:00 -2°C° 0 mm 3 mps 756 mmHg 94%
    06:00 -2°C° 0 mm 3 mps 756 mmHg 94%
    07:00 -2°C° 0 mm 2 mps 756 mmHg 94%
    08:00 -2°C° 0 mm 2 mps 756 mmHg 92%
    09:00 -2°C° 0 mm 3 mps 756 mmHg 91%
    10:00 -2°C° 0 mm 3 mps 757 mmHg 90%
    11:00 -1°C° 0 mm 2 mps 757 mmHg 89%
    12:00 -1°C° 0 mm 2 mps 757 mmHg 89%
    13:00 -1°C° 0 mm 2 mps 757 mmHg 88%
    14:00 0°C° 0 mm 1 mps 758 mmHg 89%
    15:00 0°C° 0 mm 1 mps 758 mmHg 90%
    16:00 -1°C° 0 mm 1 mps 758 mmHg 91%
    17:00 -1°C° 0 mm 1 mps 759 mmHg 91%
    18:00 -1°C° 0 mm 1 mps 759 mmHg 91%
    19:00 -1°C° 0 mm 1 mps 759 mmHg 91%
    20:00 -1°C° 0 mm 1 mps 760 mmHg 91%
    21:00 -2°C° 0 mm 1 mps 760 mmHg 91%
    22:00 -2°C° 0 mm 1 mps 760 mmHg 91%
    23:00 -2°C° 0 mm 1 mps 760 mmHg 91%

    18 December, Tuesday

    Time Temperature Precipitation Wind Pressure Humidity
    00:00 -3°C° 0 mm 0 mps 761 mmHg 91%
    01:00 -3°C° 0 mm 0 mps 761 mmHg 91%
    02:00 -3°C° 0 mm 0 mps 761 mmHg 91%
    03:00 -3°C° 0 mm 0 mps 761 mmHg 91%
    04:00 -3°C° 0 mm 0 mps 761 mmHg 92%
    05:00 -2°C° 0 mm 1 mps 761 mmHg 92%
    06:00 -2°C° 0 mm 1 mps 761 mmHg 92%
    07:00 -2°C° 0 mm 1 mps 762 mmHg 92%
    08:00 -2°C° 0 mm 1 mps 762 mmHg 91%
    09:00 -1°C° 0 mm 1 mps 762 mmHg 91%
    10:00 0°C° 0 mm 1 mps 762 mmHg 90%
    11:00 0°C° 0 mm 1 mps 762 mmHg 90%
    12:00 0°C° 0 mm 1 mps 762 mmHg 90%
    13:00 +1°C° 0 mm 1 mps 762 mmHg 90%
    14:00 0°C° 0 mm 1 mps 762 mmHg 91%
    15:00 -2°C° 0 mm 2 mps 762 mmHg 92%
    16:00 -3°C° 0 mm 2 mps 762 mmHg 93%
    17:00 -3°C° 0 mm 2 mps 762 mmHg 93%
    18:00 -3°C° 0 mm 2 mps 762 mmHg 93%
    19:00 -4°C° 0 mm 2 mps 762 mmHg 94%
    20:00 -4°C° 0 mm 2 mps 762 mmHg 93%
    21:00 -5°C° 0 mm 3 mps 762 mmHg 93%
    22:00 -5°C° 0 mm 3 mps 762 mmHg 93%
    23:00 -5°C° 0 mm 3 mps 761 mmHg 93%

    19 December, Wednesday

    Time Temperature Precipitation Wind Pressure Humidity
    00:00 -4°C° 0 mm 2 mps 761 mmHg 92%
    01:00 -4°C° 0 mm 2 mps 761 mmHg 92%
    02:00 -4°C° 0 mm 2 mps 761 mmHg 92%
    03:00 -3°C° 0 mm 2 mps 760 mmHg 92%
    04:00 -4°C° 0 mm 3 mps 760 mmHg 92%
    05:00 -5°C° 0 mm 3 mps 760 mmHg 92%
    06:00 -5°C° 0 mm 3 mps 760 mmHg 93%
    07:00 -5°C° 0 mm 4 mps 759 mmHg 94%
    08:00 -5°C° 0 mm 4 mps 759 mmHg 93%
    09:00 -4°C° 0 mm 4 mps 759 mmHg 91%
    10:00 -5°C° 0 mm 5 mps 759 mmHg 90%
    11:00 -5°C° 0 mm 5 mps 759 mmHg 90%
    12:00 -4°C° 0 mm 5 mps 758 mmHg 89%
    13:00 -4°C° 0 mm 5 mps 758 mmHg 88%
    14:00 -4°C° 0 mm 5 mps 757 mmHg 89%
    15:00 -4°C° 0 mm 5 mps 757 mmHg 89%
    16:00 -4°C° 0 mm 5 mps 757 mmHg 90%
    17:00 -4°C° 0 mm 5 mps 757 mmHg 90%
    18:00 -4°C° 0 mm 5 mps 756 mmHg 91%
    19:00 -4°C° 0 mm 5 mps 756 mmHg 91%
    20:00 -4°C° 0 mm 5 mps 756 mmHg 91%
    21:00 -4°C° 0 mm 5 mps 756 mmHg 91%
    22:00 -4°C° 0 mm 5 mps 756 mmHg 92%
    23:00 -3°C° 0 mm 4 mps 755 mmHg 92%
    Show more